Weather History for Marathon, FL

Change the Weather History Date:

Tuesday, January 8, 2013

  Actual Average Record
Temperature  
Mean Temperature 78 °F 69 °F  
Max Temperature 83 °F 75 °F 84 °F (1998)
Min Temperature 73 °F 64 °F 50 °F (2002)
Degree Days  
Heating Degree Days 0 2  
Month to date heating degree days 0 14  
Since 1 July heating degree days 6 35  
Cooling Degree Days 13 6  
Month to date cooling degree days 97 48  
Year to date cooling degree days 97 48  
Growing Degree Days 28 (Base 50)    
Moisture  
Dew Point 69 °F    
Average Humidity 73    
Maximum Humidity 84    
Minimum Humidity 62    
Precipitation  
Precipitation T in 0.05 in 0.10 in (2014)
Month to date precipitation 0.11 0.50  
Year to date precipitation 0.11 0.50  
Snow  
Snow 0.00 in - - ()
Month to date snowfall 0.0  
Since 1 July snowfall 0.0  
Snow Depth 0.00 in    
Sea Level Pressure  
Sea Level Pressure 30.10 in    
Wind  
Wind Speed 8 mph (East)    
Max Wind Speed 14 mph    
Max Gust Speed 22 mph    
Visibility 10 miles    
Events      
T = Trace of Precipitation, MM = Missing Value Source: NWS Daily Summary

Daily Weather History Graph

Daily Weather History Graph

Search for Another Location

Airport:

Trip Planner

Search our weather history database for the weather conditions in past years. The results will help you decide how hot, cold, wet, or windy it might be!

Date:

Astronomy

Jan. 08, 2013 Rise Set
Actual Time 7:10 AM EST 5:52 PM EST
Civil Twilight 6:45 AM EST 6:16 PM EST
Nautical Twilight 6:17 AM EST 6:44 PM EST
Astronomical Twilight 5:49 AM EST 7:12 PM EST
Moon 3:43 AM EST (1/8) 2:52 PM EST (1/8)
Length of Visible Light 11h 31m
Length of Day
10h 41m
Waning Crescent, 14% of the Moon is Illuminated
Jan 8
Waning Crescent
Jan 11
New
Jan 18
First Quarter
Jan 26
Full
Feb 3
Last Quarter

Hourly Weather History & Observations

Time (EST) Temp. Heat Index Dew Point Humidity Pressure Visibility Wind Dir Wind Speed Gust Speed Precip Events Conditions
12:53 AM 75.9 °F - 66.9 °F 74% 30.07 in 10.0 mi ENE 9.2 mph - N/A   Clear
1:51 AM 75.2 °F - 68.0 °F 78% 30.07 in 10.0 mi ENE 9.2 mph - N/A   Mostly Cloudy
1:53 AM 75.9 °F - 68.0 °F 76% 30.06 in 10.0 mi ENE 9.2 mph - N/A   Mostly Cloudy
2:28 AM 75.2 °F - 69.8 °F 83% 30.06 in 10.0 mi ENE 8.1 mph - N/A   Mostly Cloudy
2:53 AM 75.0 °F - 69.1 °F 82% 30.06 in 10.0 mi ENE 4.6 mph - N/A   Scattered Clouds
3:53 AM 73.9 °F - 68.0 °F 82% 30.05 in 10.0 mi NE 4.6 mph - N/A   Clear
4:53 AM 75.0 °F - 68.0 °F 79% 30.05 in 10.0 mi ESE 4.6 mph - N/A   Mostly Cloudy
5:08 AM 75.2 °F - 68.0 °F 78% 30.06 in 10.0 mi ESE 6.9 mph - 0.00 in   Mostly Cloudy
5:53 AM 75.0 °F - 68.0 °F 79% 30.07 in 10.0 mi East 4.6 mph - 0.00 in   Clear
6:53 AM 75.0 °F - 68.0 °F 79% 30.09 in 10.0 mi East 5.8 mph - N/A   Clear
7:53 AM 75.9 °F - 66.9 °F 74% 30.12 in 10.0 mi East 5.8 mph - N/A   Clear
9:53 AM 80.1 °F 82.3 °F 66.9 °F 64% 30.17 in 10.0 mi East 6.9 mph - N/A   Clear
10:53 AM 81.0 °F 83.8 °F 68.0 °F 65% 30.17 in 10.0 mi ENE 9.2 mph - N/A   Scattered Clouds
11:53 AM 81.0 °F 83.8 °F 68.0 °F 65% 30.15 in 10.0 mi East 8.1 mph 16.1 mph N/A   Partly Cloudy
12:53 PM 82.0 °F 85.5 °F 69.1 °F 65% 30.12 in 10.0 mi East 8.1 mph - N/A   Clear
1:53 PM 82.0 °F 85.9 °F 70.0 °F 67% 30.10 in 10.0 mi Variable 6.9 mph - N/A   Clear
2:53 PM 82.0 °F 85.9 °F 70.0 °F 67% 30.09 in 10.0 mi ESE 8.1 mph - N/A   Scattered Clouds
3:53 PM 81.0 °F 84.1 °F 69.1 °F 67% 30.09 in 10.0 mi ESE 8.1 mph 17.3 mph N/A   Clear
4:53 PM 79.0 °F - 69.1 °F 72% 30.09 in 10.0 mi ESE 6.9 mph - N/A   Partly Cloudy
5:53 PM 78.1 °F - 69.1 °F 74% 30.10 in 10.0 mi Variable 6.9 mph 17.3 mph N/A   Clear
6:53 PM 78.1 °F - 69.1 °F 74% 30.12 in 10.0 mi ESE 10.4 mph 18.4 mph N/A   Partly Cloudy
7:53 PM 78.1 °F - 69.1 °F 74% 30.12 in 10.0 mi East 9.2 mph 20.7 mph N/A   Partly Cloudy
8:53 PM 78.1 °F - 69.1 °F 74% 30.12 in 10.0 mi ESE 9.2 mph 19.6 mph N/A   Partly Cloudy
9:53 PM 77.0 °F - 70.0 °F 79% 30.12 in 10.0 mi East 8.1 mph 20.7 mph N/A   Clear
10:53 PM 78.1 °F - 69.1 °F 74% 30.12 in 10.0 mi ESE 8.1 mph - N/A   Clear